ANG100 AYPY-AYNZ

Flight info

Callsign ANG100
Flight time N/A
Altitude 24000
Route PY DCT LARID DCT NZ
Aircraft B738/M-SDE2E3FGHIRWXY/LB1

Departure

Time N/A
Airport Port Moresby Jacksons International Airport (AYPY)

Arrival

Time 2026-05-08 12:19
Airport Nadzab Tomodachi International Airport (AYNZ)
Time Latitude Longitude Altitude Speed Heading
2026-05-08 12:10 -6.72807 146.91274 10636 ft 352 kts 275°
2026-05-08 12:10 -6.72608 146.88853 10480 ft 343 kts 274°
2026-05-08 12:11 -6.72433 146.86491 10339 ft 334 kts 274°
2026-05-08 12:11 -6.72258 146.84187 10194 ft 327 kts 274°
2026-05-08 12:11 -6.72080 146.81935 10046 ft 320 kts 274°
2026-05-08 12:11 -6.71899 146.79738 10002 ft 309 kts 274°
2026-05-08 12:12 -6.71718 146.77601 9572 ft 313 kts 274°
2026-05-08 12:12 -6.71531 146.75421 9207 ft 313 kts 274°
2026-05-08 12:12 -6.71341 146.73235 8832 ft 314 kts 274°
2026-05-08 12:12 -6.71152 146.71060 8512 ft 313 kts 274°
2026-05-08 12:13 -6.70961 146.68880 8199 ft 311 kts 274°
2026-05-08 12:13 -6.70772 146.66719 7895 ft 310 kts 274°
2026-05-08 12:13 -6.70583 146.64563 7590 ft 308 kts 274°
2026-05-08 12:13 -6.70395 146.62427 7430 ft 303 kts 274°
2026-05-08 12:14 -6.70212 146.60347 7260 ft 295 kts 274°
2026-05-08 12:14 -6.70037 146.58353 7163 ft 285 kts 275°
2026-05-08 12:14 -6.69663 146.56398 7017 ft 279 kts 295°
2026-05-08 12:14 -6.68538 146.54909 6882 ft 270 kts 322°
2026-05-08 12:15 -6.66864 146.54036 6378 ft 276 kts 347°
2026-05-08 12:15 -6.64944 146.53832 5847 ft 282 kts
2026-05-08 12:15 -6.62959 146.53994 5321 ft 292 kts
2026-05-08 12:15 -6.60897 146.54211 4672 ft 301 kts
2026-05-08 12:16 -6.58842 146.54588 3895 ft 301 kts 22°
2026-05-08 12:16 -6.57140 146.55777 3303 ft 298 kts 50°
2026-05-08 12:16 -6.56127 146.57532 2986 ft 286 kts 71°
2026-05-08 12:16 -6.55817 146.59460 2646 ft 276 kts 92°
2026-05-08 12:17 -6.55956 146.61329 2284 ft 259 kts 95°
2026-05-08 12:17 -6.56121 146.63070 1973 ft 241 kts 96°
2026-05-08 12:17 -6.56277 146.64679 1679 ft 222 kts 95°
2026-05-08 12:17 -6.56414 146.66164 1384 ft 205 kts 95°
2026-05-08 12:18 -6.56536 146.67534 1124 ft 189 kts 95°
2026-05-08 12:18 -6.56647 146.68790 921 ft 170 kts 95°
2026-05-08 12:18 -6.56754 146.69904 715 ft 152 kts 96°
2026-05-08 12:18 -6.56836 146.70949 377 ft 149 kts 95°
2026-05-08 12:19 -6.56925 146.71953 211 ft 136 kts 96°
2026-05-08 12:19 -6.56993 146.72749 206 ft 85 kts 95°
2026-05-08 12:19 -6.57031 146.73187 207 ft 55 kts 95°
2026-05-08 12:19 -6.57060 146.73522 218 ft 29 kts 95°
2026-05-08 12:20 -6.57073 146.73676 217 ft 19 kts 89°
2026-05-08 12:20 -6.56981 146.73725 218 ft 16 kts
2026-05-08 12:20 -6.56889 146.73680 217 ft 15 kts 308°
2026-05-08 12:20 -6.56866 146.73579 217 ft 15 kts 274°
2026-05-08 12:21 -6.56859 146.73478 206 ft 14 kts 274°
2026-05-08 12:21 -6.56854 146.73414 206 ft 14 kts 275°
2026-05-08 12:21 -6.56845 146.73321 207 ft 13 kts 276°
2026-05-08 12:21 -6.56836 146.73231 206 ft 13 kts 276°
2026-05-08 12:22 -6.56828 146.73153 206 ft 9 kts 276°
2026-05-08 12:22 -6.56823 146.73092 209 ft 9 kts 275°
2026-05-08 12:22 -6.56818 146.73033 209 ft 8 kts 275°
2026-05-08 12:22 -6.56813 146.72975 209 ft 8 kts 275°
2026-05-08 12:23 -6.56807 146.72919 209 ft 8 kts 278°
2026-05-08 12:23 -6.56758 146.72879 209 ft 12 kts 352°
2026-05-08 12:23 -6.56673 146.72919 211 ft 18 kts 83°
2026-05-08 12:23 -6.56653 146.72995 210 ft 11 kts
2026-05-08 12:24 -6.56623 146.72997 210 ft 3 kts
2026-05-08 12:24 -6.56613 146.72997 209 ft 0 kts
2026-05-08 12:24 -6.56611 146.72998 209 ft 0 kts